| time (UTC) | temp C | wind direction | speed KPH | gust KPH | rain 1hr cm | rain 24hr cm | rain mn cm | humidity % | barometer mb |
| 20260506153729 | 13 | 1 | 16.1 | 37.0 | 2.39 | 2.49 | 2.39 | 65 | 1010.9 |
| 20260506152829 | 12 | 1 | 19.3 | 33.8 | 2.26 | 2.36 | 2.29 | 67 | 1010.9 |
| 20260506151929 | 12 | 1 | 17.7 | 41.8 | 1.73 | 1.85 | 1.78 | 73 | 1011.3 |
| 20260506151029 | 13 | 1 | 14.5 | 41.8 | 0.41 | 0.69 | 0.51 | 77 | 1010.6 |
| 20260506144329 | 16 | 1 | 9.7 | 20.9 | 0.00 | 0.86 | 0.00 | 72 | 1010.2 |
| 20260506143429 | 16 | 1 | 9.7 | 20.9 | 0.00 | 0.89 | 0.00 | 71 | 1010.2 |
| 20260506141629 | 17 | 1 | 9.7 | 19.3 | 0.00 | 0.99 | 0.00 | 70 | 1010.4 |
| 20260506140729 | 17 | 1 | 8.0 | 24.1 | 0.00 | 0.99 | 0.00 | 68 | 1010.7 |
| 20260506135829 | 17 | 1 | 9.7 | 27.4 | 0.00 | 0.99 | 0.00 | 68 | 1010.6 |
| 20260506134929 | 17 | 1 | 8.0 | 24.1 | 0.00 | 0.99 | 0.00 | 68 | 1010.9 |
| 20260506134029 | 17 | 1 | 8.0 | 19.3 | 0.00 | 0.99 | 0.00 | 68 | 1011.0 |
| 20260506133129 | 17 | 1 | 8.0 | 20.9 | 0.00 | 0.99 | 0.00 | 68 | 1011.1 |
| 20260506131329 | 17 | 1 | 9.7 | 20.9 | 0.00 | 0.99 | 0.00 | 68 | 1011.2 |
| 20260506130429 | 17 | 1 | 9.7 | 22.5 | 0.00 | 0.99 | 0.00 | 67 | 1011.3 |
| 20260506125529 | 17 | 1 | 9.7 | 20.9 | 0.00 | 0.99 | 0.00 | 68 | 1011.3 |
| 20260506124629 | 17 | 1 | 8.0 | 17.7 | 0.00 | 0.99 | 0.00 | 67 | 1011.3 |
| 20260506121929 | 16 | 1 | 8.0 | 24.1 | 0.00 | 1.09 | 0.00 | 71 | 1011.5 |
| 20260506121029 | 16 | 1 | 6.4 | 20.9 | 0.00 | 1.09 | 0.00 | 71 | 1011.6 |
| 20260506120128 | 16 | 1 | 8.0 | 19.3 | 0.00 | 1.09 | 0.00 | 72 | 1011.6 |
| 20260506115229 | 16 | 1 | 9.7 | 19.3 | 0.00 | 1.09 | 0.00 | 71 | 1011.6 |
| 20260506114328 | 16 | 1 | 9.7 | 24.1 | 0.00 | 1.09 | 0.00 | 68 | 1011.6 |
| 20260506113428 | 17 | 1 | 8.0 | 17.7 | 0.00 | 1.09 | 0.00 | 67 | 1011.6 |
| 20260506112528 | 17 | 1 | 8.0 | 17.7 | 0.00 | 1.09 | 0.00 | 66 | 1011.5 |
| 20260506111628 | 17 | 1 | 6.4 | 16.1 | 0.00 | 1.09 | 0.00 | 67 | 1011.7 |
| 20260506110728 | 17 | 1 | 6.4 | 16.1 | 0.00 | 1.09 | 0.00 | 68 | 1011.8 |
| 20260506105828 | 17 | 1 | 8.0 | 19.3 | 0.00 | 1.09 | 0.00 | 69 | 1011.7 |
| 20260506104928 | 17 | 1 | 6.4 | 17.7 | 0.00 | 1.09 | 0.00 | 69 | 1011.8 |
| 20260506103128 | 17 | 1 | 4.8 | 16.1 | 0.00 | 1.09 | 0.00 | 62 | 1011.9 |
| 20260506102228 | 17 | 1 | 6.4 | 11.3 | 0.00 | 1.09 | 0.00 | 64 | 1011.9 |
| 20260506101328 | 17 | 1 | 4.8 | 16.1 | 0.00 | 1.09 | 0.00 | 65 | 1012.0 |
| 20260506100428 | 17 | 1 | 8.0 | 12.9 | 0.00 | 1.09 | 0.00 | 64 | 1012.1 |
| 20260506095528 | 17 | 1 | 8.0 | 16.1 | 0.00 | 1.09 | 0.00 | 65 | 1012.2 |
| 20260506091928 | 17 | 1 | 3.2 | 8.0 | 0.00 | 1.09 | 0.00 | 70 | 1012.1 |
| 20260506091028 | 16 | 1 | 4.8 | 14.5 | 0.00 | 1.09 | 0.00 | 70 | 1012.1 |
| 20260506090128 | 16 | 1 | 4.8 | 9.7 | 0.00 | 1.09 | 0.00 | 72 | 1012.0 |
| 20260506085228 | 16 | 1 | 3.2 | 11.3 | 0.00 | 1.09 | 0.00 | 73 | 1012.0 |
| 20260506084328 | 16 | 1 | 3.2 | 8.0 | 0.00 | 1.09 | 0.00 | 73 | 1011.9 |
| 20260506083428 | 15 | 1 | 3.2 | 9.7 | 0.00 | 1.09 | 0.00 | 73 | 1011.8 |
| 20260506082528 | 15 | 1 | 3.2 | 8.0 | 0.00 | 1.09 | 0.00 | 73 | 1011.8 |
| 20260506081628 | 15 | 1 | 3.2 | 8.0 | 0.00 | 1.09 | 0.00 | 74 | 1011.7 |
| 20260506080728 | 15 | 1 | 3.2 | 6.4 | 0.00 | 1.09 | 0.00 | 75 | 1011.7 |
| 20260506073128 | 13 | 1 | 3.2 | 6.4 | 0.00 | 1.09 | 0.00 | 78 | 1011.7 |
| 20260506072228 | 13 | 1 | 4.8 | 8.0 | 0.00 | 1.09 | 0.00 | 77 | 1011.6 |
| 20260506071328 | 13 | 1 | 4.8 | 9.7 | 0.00 | 1.09 | 0.00 | 77 | 1011.7 |
| 20260506070428 | 13 | 1 | 3.2 | 9.7 | 0.00 | 1.09 | 0.00 | 77 | 1011.7 |
| 20260506061028 | 12 | 1 | 1.6 | 3.2 | 0.00 | 1.09 | 0.00 | 73 | 1011.4 |
| 20260506060128 | 11 | 1 | 1.6 | 3.2 | 0.00 | 1.09 | 0.00 | 73 | 1011.4 |
| 20260506050727 | 11 | 1 | 0.0 | 4.8 | 0.00 | 1.09 | 0.00 | 76 | 1010.8 |
| 20260506044927 | 11 | 1 | 0.0 | 3.2 | 0.00 | 1.09 | 0.00 | 77 | 1010.6 |
| 20260506044027 | 11 | 1 | 1.6 | 3.2 | 0.00 | 1.09 | 0.00 | 78 | 1010.5 |
| 20260506043127 | 11 | 1 | 1.6 | 3.2 | 0.00 | 1.09 | 0.00 | 78 | 1010.5 |
| 20260506040427 | 11 | 1 | 1.6 | 3.2 | 0.00 | 1.09 | 0.00 | 78 | 1010.3 |
| 20260506033727 | 12 | 1 | 3.2 | 4.8 | 0.00 | 1.09 | 0.00 | 77 | 1010.3 |
| 20260506032827 | 12 | 1 | 3.2 | 6.4 | 0.00 | 1.09 | 0.00 | 76 | 1010.3 |
| 20260506031927 | 12 | 1 | 3.2 | 8.0 | 0.00 | 1.09 | 0.00 | 76 | 1010.2 |
| 20260506031027 | 12 | 1 | 3.2 | 4.8 | 0.00 | 1.09 | 0.00 | 77 | 1010.2 |
| 20260506030127 | 12 | 1 | 4.8 | 6.4 | 0.00 | 1.09 | 0.00 | 77 | 1010.2 |
| 20260506025227 | 12 | 1 | 6.4 | 9.7 | 0.00 | 1.09 | 0.00 | 78 | 1010.2 |
| 20260506024327 | 12 | 1 | 6.4 | 11.3 | 0.00 | 1.09 | 0.00 | 78 | 1010.2 |
| 20260506023427 | 12 | 1 | 6.4 | 11.3 | 0.00 | 1.09 | 0.00 | 78 | 1010.1 |
| 20260506022527 | 12 | 1 | 6.4 | 11.3 | 0.00 | 1.09 | 0.00 | 78 | 1010.1 |
| 20260506021627 | 12 | 1 | 8.0 | 12.9 | 0.00 | 1.09 | 0.00 | 78 | 1010.1 |
| 20260506015827 | 12 | 1 | 8.0 | 16.1 | 0.00 | 1.09 | 0.00 | 78 | 1010.0 |
| 20260506014927 | 11 | 1 | 8.0 | 12.9 | 0.00 | 1.09 | 0.00 | 77 | 1010.1 |
| 20260506014027 | 11 | 1 | 6.4 | 12.9 | 0.00 | 1.09 | 0.00 | 77 | 1010.1 |
| 20260506013127 | 12 | 1 | 6.4 | 9.7 | 0.00 | 1.09 | 0.00 | 77 | 1010.1 |
| 20260506012227 | 12 | 1 | 4.8 | 11.3 | 0.00 | 1.09 | 0.00 | 77 | 1010.2 |
| 20260506011327 | 12 | 1 | 4.8 | 11.3 | 0.00 | 1.09 | 0.00 | 77 | 1010.1 |
| 20260506010427 | 12 | 1 | 4.8 | 12.9 | 0.00 | 1.09 | 0.00 | 77 | 1010.1 |
| 20260506005527 | 12 | 1 | 3.2 | 8.0 | 0.00 | 1.09 | 0.00 | 77 | 1010.2 |
| 20260506004627 | 12 | 1 | 4.8 | 6.4 | 0.00 | 1.09 | 0.00 | 78 | 1010.4 |
| 20260506003727 | 12 | 1 | 4.8 | 6.4 | 0.00 | 1.09 | 0.00 | 78 | 1010.4 |
| 20260506002827 | 12 | 1 | 6.4 | 11.3 | 0.00 | 1.09 | 0.00 | 77 | 1010.5 |
| 20260506001927 | 13 | 1 | 6.4 | 11.3 | 0.00 | 1.09 | 0.00 | 77 | 1010.4 |
| 20260506001027 | 13 | 1 | 6.4 | 9.7 | 0.00 | 1.09 | 0.00 | 74 | 1010.4 |
| 20260505234327 | 13 | 1 | 4.8 | 8.0 | 0.00 | 1.09 | 0.00 | 73 | 1010.7 |
| 20260505233426 | 13 | 1 | 4.8 | 11.3 | 0.00 | 1.09 | 0.00 | 73 | 1010.8 |
| 20260505232527 | 13 | 1 | 4.8 | 11.3 | 0.00 | 1.09 | 0.00 | 74 | 1011.0 |
| 20260505231627 | 12 | 1 | 4.8 | 12.9 | 0.00 | 1.09 | 0.00 | 75 | 1011.0 |
| 20260505230727 | 12 | 1 | 4.8 | 14.5 | 0.00 | 1.09 | 0.00 | 76 | 1011.0 |
| 20260505225826 | 12 | 1 | 6.4 | 12.9 | 0.00 | 1.09 | 0.00 | 76 | 1010.8 |
| 20260505224027 | 12 | 1 | 6.4 | 16.1 | 0.00 | 1.09 | 0.00 | 77 | 1010.9 |
| 20260505223126 | 12 | 1 | 4.8 | 12.9 | 0.00 | 1.09 | 0.00 | 77 | 1011.0 |
| 20260505222226 | 12 | 1 | 6.4 | 11.3 | 0.00 | 1.09 | 0.00 | 77 | 1011.1 |
| 20260505221326 | 12 | 1 | 6.4 | 14.5 | 0.00 | 1.12 | 0.00 | 77 | 1011.1 |
| 20260505220426 | 12 | 1 | 8.0 | 19.3 | 0.00 | 1.30 | 0.00 | 76 | 1011.2 |
| 20260505215526 | 12 | 1 | 8.0 | 16.1 | 0.00 | 1.30 | 1.30 | 76 | 1011.3 |
| 20260505214626 | 12 | 1 | 8.0 | 20.9 | 0.00 | 1.32 | 1.30 | 76 | 1011.4 |
| 20260505211926 | 12 | 1 | 8.0 | 17.7 | 0.00 | 1.32 | 1.30 | 76 | 1011.5 |
| 20260505211026 | 12 | 1 | 11.3 | 19.3 | 0.00 | 1.32 | 1.30 | 77 | 1011.6 |
| 20260505210126 | 12 | 1 | 11.3 | 25.7 | 0.00 | 1.32 | 1.30 | 77 | 1011.4 |
| 20260505205226 | 12 | 1 | 11.3 | 19.3 | 0.00 | 1.32 | 1.30 | 78 | 1011.0 |
| 20260505204326 | 12 | 1 | 11.3 | 19.3 | 0.00 | 1.32 | 1.30 | 77 | 1010.9 |
| 20260505202526 | 12 | 1 | 12.9 | 19.3 | 0.00 | 1.32 | 1.30 | 76 | 1011.0 |
| 20260505201626 | 12 | 1 | 14.5 | 25.7 | 0.00 | 1.32 | 1.30 | 75 | 1010.9 |
| 20260505195826 | 12 | 1 | 14.5 | 27.4 | 0.08 | 1.32 | 1.30 | 70 | 1010.9 |
| 20260505194026 | 12 | 1 | 12.9 | 24.1 | 0.08 | 1.32 | 1.30 | 69 | 1010.6 |
| 20260505193126 | 12 | 1 | 14.5 | 22.5 | 0.10 | 1.32 | 1.30 | 72 | 1010.7 |
| 20260505192226 | 12 | 1 | 14.5 | 24.1 | 0.10 | 1.32 | 1.30 | 73 | 1010.7 |
| 20260505191326 | 12 | 1 | 11.3 | 25.7 | 0.08 | 1.30 | 1.30 | 75 | 1010.9 |
| 20260505190426 | 12 | 1 | 9.7 | 24.1 | 0.03 | 1.24 | 1.22 | 76 | 1010.7 |
| 20260505185526 | 12 | 1 | 14.5 | 22.5 | 0.03 | 1.24 | 1.22 | 76 | 1010.7 |
| 20260505184626 | 12 | 1 | 16.1 | 30.6 | 0.03 | 1.24 | 1.22 | 77 | 1010.6 |
| 20260505183726 | 13 | 1 | 9.7 | 30.6 | 0.03 | 1.24 | 1.22 | 77 | 1010.3 |
| 20260505182826 | 16 | 1 | 3.2 | 11.3 | 0.00 | 1.22 | 1.19 | 69 | 1009.8 |
| 20260505181926 | 16 | 1 | 4.8 | 9.7 | 0.00 | 1.22 | 1.19 | 70 | 1009.5 |
| 20260505181026 | 16 | 1 | 3.2 | 11.3 | 0.00 | 1.22 | 1.19 | 70 | 1009.6 |
| 20260505180126 | 16 | 1 | 3.2 | 8.0 | 0.00 | 1.22 | 1.19 | 70 | 1009.6 |
| 20260505175226 | 16 | 1 | 4.8 | 11.3 | 0.00 | 1.22 | 1.19 | 70 | 1009.6 |
| 20260505174326 | 16 | 1 | 3.2 | 9.7 | 0.00 | 1.22 | 1.19 | 71 | 1009.5 |
| 20260505173426 | 16 | 1 | 3.2 | 9.7 | 0.00 | 1.22 | 1.19 | 70 | 1009.5 |
| 20260505172526 | 16 | 1 | 4.8 | 9.7 | 0.00 | 1.22 | 1.19 | 70 | 1009.4 |
| 20260505171626 | 16 | 1 | 4.8 | 14.5 | 0.00 | 1.22 | 1.19 | 70 | 1009.4 |
| 20260505170726 | 16 | 1 | 4.8 | 11.3 | 0.00 | 1.22 | 1.19 | 70 | 1009.5 |
| 20260505165825 | 16 | 1 | 4.8 | 11.3 | 0.00 | 1.22 | 1.19 | 69 | 1009.5 |
| 20260505164026 | 16 | 1 | 4.8 | 12.9 | 0.00 | 1.22 | 1.19 | 67 | 1009.6 |
| 20260505163126 | 16 | 1 | 3.2 | 12.9 | 0.00 | 1.24 | 1.19 | 67 | 1009.8 |
| 20260505162225 | 16 | 1 | 4.8 | 12.9 | 0.00 | 1.24 | 1.19 | 66 | 1009.8 |
| 20260505161326 | 16 | 1 | 4.8 | 11.3 | 0.15 | 1.27 | 1.19 | 64 | 1009.8 |
| 20260505160426 | 16 | 1 | 4.8 | 12.9 | 0.38 | 1.37 | 1.19 | 65 | 1009.9 |